Погода в Лысьве

Россия / Пермский край     58°06′01″N   57°48′41″E
темп.,
°C
ветер,
м/с
пор.,
м/с
влажн.,
%
обл.,
%
осадки,
мм/ч
давл.,
гПа
погр.,
м
28 июля, ср
ср2823:00+7зсз12878 0.0 101314
02:00+8з2580100 0.0 1012191
05:00+9з377962 0.0 1012313
08:00+9сз3884100 0.1 1012538
11:00+9зсз379285 0.7 1012742
14:00+13сз465793 0.5 10111620
17:00+12сз3659100 0.5 10121186
20:00+11зсз366988 0.0 1012678
29 июля, чт
чт2923:00+9зсз267138 0.1 1012309
02:00+5зюз2392100 0.0 101256
05:00+5юз299132 0.0 1011195
08:00+11юз4136955 0.0 1009445
11:00+18з6104984 0.0 10071218
14:00+20з6124489 0.0 10062206
17:00+19з385595 0.0 10051049
20:00+13юв229888 4.4 100675
30 июля, пт
пт3023:00+13ю249749 5.1 100575
02:00+12ююз2898100 0.6 1005213
05:00+13ююз31198100 1.0 1004413
08:00+14ююз31097100 0.0 1003529
11:00+13ююз3898100 0.1 1002509
14:00+14юз3695100 0.1 1002495
17:00+17юз348492 0.2 1002718
20:00+17ююз269060 0.3 1003334
31 июля, сб
сб3123:00+14ююз239924 0.3 100360
02:00+13зюз119925 0.0 100412
05:00+12юз119973 0.0 100514
08:00+15юз119586 0.0 1006269
11:00+19юз248197 0.1 1006698
14:00+24юз345515 0.2 10041527
17:00+22ююз46799 1.2 1004964
20:00+19ююз499157 0.7 1003652
1 августа, вс
вс123:00+16ю2999100 1.3 1003268
02:00+16зюз389988 2.7 1003346
05:00+15з3697100 2.7 1004346
08:00+16зюз311935 0.1 1005528
11:00+21зсз510575 0.2 10061307
14:00+23зсз594953 0.1 10072113
17:00+20з3763100 0.1 1008622
20:00+19з277692 0.0 1008275